Terminal Aerodrome Forecast
Issued by NWS

Home | Current Version | Previous Version | Text Only | Print | Product List | Glossary On
Versions: 1 2 3 4 5 6 7 8 9 10 11 12 13 14 15 16 17 18 19 20 21 22 23 24 25 26
000
FTUS43 KDMX 232334
TAFMCW
TAF
KMCW 232334Z 2400/2424 03004KT P6SM SKC
     FM241800 35008KT P6SM SCT100
     FM242100 36011G18KT P6SM BKN090=

USA.gov is the U.S. government's official web portal to all federal, state and local government web resources and services.